Regional Weather Roundup
Issued by NWS

Home | Current Version | Previous Version | Graphics & Text | Print | Product List | Glossary Off
Versions: 1 2 3 4 5 6 7 8 9 10 11 12 13 14 15 16 17 18 19 20 21 22 23 24 25 26 27 28 29 30 31 32 33 34 35 36 37 38 39 40 41 42 43 44 45 46 47 48 49 50

000
ASUS43 KMPX 282010
RWRMN
WEATHER ROUNDUP FOR MINNESOTA
NATIONAL WEATHER SERVICE TWIN CITIES/CHANHASSEN MN
300 PM CDT THU APR 28 2016


NOTE: "FAIR" INDICATES FEW OR NO CLOUDS BELOW 12,000 FEET WITH NO
SIGNIFICANT WEATHER AND/OR OBSTRUCTIONS TO VISIBILITY. N/A MEANS
CURRENT SKY AND/OR WEATHER CONDITIONS ARE NOT AVAILABLE.

MNZ060>063-068>070-282100-
   Twin Cities Metro

CITY           SKY/WX    TMP DP  RH WIND       PRES   REMARKS
TWIN CITIES    LGT RAIN  42  36  79 NE21G29   30.02R
ST PAUL        LGT RAIN  41  35  79 E14G24    30.05R
CRYSTAL        CLOUDY    44  34  67 E8        30.02S
BLAINE         CLOUDY    45  37  76 E9        30.03R
EDEN PRAIRIE   LGT RAIN  43  36  76 E12       30.01R
SOUTH ST PAUL  LGT RAIN  41  38  89 E8        30.03R
LAKE ELMO      RAIN      41  36  81 E15G24    30.05R
$$
MNZ001>005-007-008-013>017-022>024-027-028-282100-
   Northwest Minnesota

CITY           SKY/WX    TMP DP  RH WIND       PRES   REMARKS
BEMIDJI        SUNNY     56  24  29 NE10G18   30.07S
HALLOCK        MOSUNNY   57  12  17 E9G22     30.14F
ROSEAU         CLOUDY    54  27  35 NE18      30.15S
WARROAD        PTSUNNY   46  25  42 NE10      30.17S
THIEF RVR FALL CLOUDY    54  21  28 NE15      30.12S
CROOKSTON      MOSUNNY   55  23  28 E13G23    30.11S
FOSSTON        SUNNY     55  23  28 NE13G22   30.10R
DETROIT LAKES  PTSUNNY   54  21  28 E10       30.06R
MOORHEAD       CLOUDY    55  18  22 E7        30.06S
PARK RAPIDS    PTSUNNY   55  19  24 NE14      30.05S
MAHNOMEN       MOCLDY    56  24  29 E10G18    30.06S
$$
MNZ006-009>011-018-025>026-282100-
   North Central Minnesota

CITY           SKY/WX    TMP DP  RH WIND       PRES   REMARKS
BAUDETTE       CLOUDY    55  22  27 E14       30.13S
FLAG ISLAND    MOSUNNY   48  18  29 N16       30.15F
INTL FALLS     MOSUNNY   52  25  35 NE10G22   30.13S
WASKISH        CLOUDY    55  27  33 N9G20     30.11S
BIG FORK       SUNNY     55  23  28 NE13G18   30.09S
LONGVILLE      MOSUNNY   55  21  26 E10       30.05S
GRAND RAPIDS   PTSUNNY   54  21  28 E8G18     30.08S
CRANE LAKE     CLOUDY    50  21  32 MISG      30.14S
ORR            MOSUNNY   54  18  24 NE5       30.09S
COOK           MOSUNNY   50  25  37 NE7       30.10F
WALKER         FAIR      54  24  31 NE13      30.07R
$$
MNZ012-019>021-037-282100-
   Northeast Minnesota

CITY           SKY/WX    TMP DP  RH WIND       PRES   REMARKS
DULUTH         CLOUDY    46  22  38 E15G25    30.10R
ELY            MOSUNNY   52  23  32 N7        30.09F
HIBBING        MOSUNNY   52  22  30 NE12G18   30.07S
EVELETH        CLOUDY    55  23  28 SE15      30.07F
DULUTH HARBOR  CLOUDY    39  36  87 NE20      30.13R
TWO HARBORS    CLOUDY    50  30  46 E15G21    30.09S
SILVER BAY     CLOUDY    46  27  46 NE10G18   30.10F
GRAND MARAIS     N/A     39  30  70 E12       30.15S
G MARAIS ARPRT MOSUNNY   46  23  39 N5        30.11S
$$
MNZ029>031-032-039>041-046>048-054>057-064-282100-
   West Central Minnesota

CITY           SKY/WX    TMP DP  RH WIND       PRES   REMARKS
FERGUS FALLS   CLOUDY    52  25  35 E9        30.04R
WHEATON        CLOUDY    48  32  53 E9        30.08R
MORRIS         LGT RAIN  39  37  93 S5        30.06R
ALEXANDRIA     CLOUDY    48  29  47 E8        30.05R
ELBOW LAKE     CLOUDY    48  26  42 NE8       30.05S
WADENA         CLOUDY    54  25  32 NE7       30.03S
GLENWOOD       LGT RAIN  39  36  87 NE7       30.06R
APPLETON       LGT RAIN  36  34  93 NE6       30.07R
BENSON         MIX PCPN  36  34  93 NE5       30.06R
ORTONVILLE     RAIN      36  34  93 CALM      30.07R
MADISON        LGT SNOW  36  36 100 N8        30.06S
WILLMAR        DRIZZLE   39  39 100 NE10      30.05R
$$
MNZ033>034-036-042>043-049>051-058-059-282100-
   Central Minnesota

CITY           SKY/WX    TMP DP  RH WIND       PRES   REMARKS
ST CLOUD       CLOUDY    45  35  68 NE7       30.05R
SAUK CENTRE    LGT RAIN  42  36  79 NE13      30.05S
PAYNESVILLE    CLOUDY    42  36  79 E8        30.04S
AITKIN         CLOUDY    57   9  14 NE10G22   30.03S
PINE RIVER     MOSUNNY   55  27  33 E6        30.07S
BRAINERD       PTSUNNY   56  22  26 NE14      30.03S
STAPLES        PTSUNNY   54  21  28 E6        30.04S
LONG PRAIRIE   CLOUDY    45  32  61 E10G16    30.05R
LITTLE FALLS   CLOUDY    46  32  57 SE9       30.05R
LITCHFIELD     CLOUDY    43  41  93 NE9       30.03S
BUFFALO        CLOUDY    42  36  78 E15       30.05R
MAPLE LAKE     CLOUDY    44  39  84 E10       30.05R
HUTCHINSON     CLOUDY    43  39  85 NE13      30.03R
$$
MNZ037-044-045-052-053-282100-
   East Central Minnesota

CITY           SKY/WX    TMP DP  RH WIND       PRES   REMARKS
PRINCETON        N/A     46  36  66 N6        30.05S
MORA           PTSUNNY   46  28  49 SW5       30.05S
CAMBRIDGE      PTSUNNY   48  34  57 N3        30.02S
RUSH CITY      CLOUDY    48  31  50 CALM      30.03S
MOOSE LAKE     CLOUDY    50  28  43 NE9G21    30.04S
HINCKLEY       FAIR      52  34  50 N13       30.03R
CLOQUET        PTSUNNY   46  16  29 E23G29    30.09R
MCGREGOR       SUNNY     54  27  35 E16G23    30.06S
$$
MNZ071>073-080-081-089-090-097-098-282100-
   Southwest Minnesota

CITY           SKY/WX    TMP DP  RH WIND       PRES   REMARKS
MONTEVIDEO     CLOUDY    37  37 100 E12       30.06R
GRANITE FALLS  CLOUDY    38  36  92 N8        30.06R
CANBY          LGT RAIN  39  38  97 NE10      30.06R
MARSHALL       CLOUDY    38  35  89 N9        30.03R
REDWOOD FALLS  LGT RAIN  40  36  86 NE6       30.02R
OLIVIA         CLOUDY    39  36  87 NE9       30.02R
PIPESTONE      CLOUDY    39  36  87 NE13      29.98S
WINDOM         LGT RAIN  39  37  93 N9        29.99R
WORTHINGTON    CLOUDY    39  36  89 N14       29.99R
JACKSON        DRIZZLE   41  37  87 NE13      29.98R
TRACY          CLOUDY    40  37  91 N10       30.01R
SLAYTON        CLOUDY    38  37  97 N9        30.00R
$$
MNZ065>067-074>077-082>085-091>093-282100-
   South Central Minnesota

CITY           SKY/WX    TMP DP  RH WIND       PRES   REMARKS
MANKATO        CLOUDY    39  34  81 E12       30.00R
NEW ULM        CLOUDY    39  37  93 NE7       30.01R
ST JAMES       CLOUDY    36  32  87 N9        30.00R
FAIRMONT       CLOUDY    39  30  70 NE13      29.97R
GLENCOE        CLOUDY    43  40  89 E7        30.01R
FARIBAULT      CLOUDY    39  37  93 NE9       30.00R
OWATONNA       MIX PCPN  39  36  87 NE9       29.99R
WASECA         CLOUDY    39  34  81 E12G17    30.00R
ALBERT LEA     CLOUDY    39  39 100 NE9       29.96R
$$
MNZ078>079-086>088-094>096-282100-
   Southeast Minnesota

CITY           SKY/WX    TMP DP  RH WIND       PRES   REMARKS
ROCHESTER      LGT RAIN  40  36  86 NE15      29.97R
RED WING       RAIN      39  36  87 E7G20     30.01R
STANTON        CLOUDY    41  36  80 E12       29.99R
DODGE CENTER   CLOUDY    39  36  87 E13       29.97R
WINONA         RAIN      41  37  87 E6        30.00R
AUSTIN         CLOUDY    41  37  87 NE9       29.95R
PRESTON        CLOUDY    40  36  85 NE8       29.95R
$$
ABBREVIATIONS USED IN REMARKS
   TC - TEMPERATURES IN CELSIUS
  WCI - WIND CHILL INDEX
   HX - HEAT INDEX
  VSB - VISIBILITY
$$




USA.gov is the U.S. government's official web portal to all federal, state and local government web resources and services.